Location: Chèvreville
(49.1099°N, 2.8495°E)
Time: 07:31:23
(UTC+00:00)

APRIZESAT 10 - Visible Passes

Search period start: 21 May 2024 00:00
Search period end: 31 May 2024 00:00
Orbit: 607 x 722 km, 97.9° (Epoch: 20 May)

Date Brightness Start Highest point End Pass type
(mag) Time Alt. Az. Time Alt. Az. Time Alt. Az.
21 May ? 00:49:06 10° ESE 00:53:00 26° ENE 00:56:51 10° N visible
21 May ? 02:25:47 13° S 02:29:48 46° W 02:34:19 10° NNW visible
22 May ? 01:19:24 10° SE 01:23:57 46° ENE 01:28:23 10° N visible
22 May ? 02:57:16 10° SSW 03:01:09 24° W 03:04:59 10° NW visible
23 May ? 00:16:16 10° E 00:18:39 14° ENE 00:21:00 10° NNE visible
23 May ? 01:50:35 12° SSE 01:55:01 87° E 01:59:41 10° NNW visible
24 May ? 00:45:41 10° ESE 00:49:26 24° ENE 00:53:07 10° N visible
24 May ? 02:22:02 12° S 02:26:12 49° W 02:30:42 10° NNW visible
25 May ? 01:15:55 10° SE 01:20:21 43° ENE 01:24:42 10° N visible
25 May ? 02:53:35 10° SSW 02:57:31 26° W 03:01:23 10° NW visible
26 May ? 00:13:00 10° E 00:15:04 13° NE 00:17:06 10° NNE visible
26 May ? 01:46:50 11° SSE 01:51:24 81° ENE 01:55:59 10° NNW visible
27 May ? 00:42:14 10° ESE 00:45:49 22° ENE 00:49:20 10° NNE visible
27 May ? 02:18:17 12° S 02:22:33 52° W 02:27:02 10° NNW visible
28 May ? 01:12:22 10° SE 01:16:42 39° ENE 01:20:57 10° N visible
28 May ? 02:49:50 10° SSW 02:53:49 27° W 02:57:44 10° NW visible
29 May ? 00:09:46 10° ENE 00:11:26 12° NE 00:13:04 10° NE visible
29 May ? 01:43:04 10° SSE 01:47:43 76° ENE 01:52:15 10° N visible
30 May ? 00:38:46 10° ESE 00:42:09 21° ENE 00:45:30 10° NNE visible
30 May ? 02:14:30 11° S 02:18:51 56° W 02:23:18 10° NNW visible
